Location: Étang Rond
(42.7927°N, 1.0661°E)
Time: 00:35:12
(UTC+00:00)

Cosmos 1864 Rocket - Pass Details

Date: 08 November 2025
Orbit: 951 x 995 km, 82.9° (Epoch: 07 December)

Event Time Altitude Azimuth Distance (km) Brightness Sun altitude
Rises 04:47:05 0° 352° (N) 3,682 7.4 -20.7°
Reaches altitude 10° 04:49:36 10° 353° (N) 2,737 6.7 -20.3°
Maximum altitude 04:55:54 88° 82° (E) 992 4.5 -19.1°
Drops below altitude 10° 05:02:13 10° 173° (S) 2,745 7.0 -18.0°
Sets 05:04:44 0° 174° (S) 3,693 7.7 -17.5°
